Meteo Giornale » Osservazioni meteo Italia » Genova-Sestri

ore: 13:50 - Osservazioni Meteo Genova-Sestri
Lat. 44° 25' N Lon. 8° 51' E Alt. 2 metri s.l.m.

sereno Europe/Rome

22 °C

Sereno

Temp. 24 Ore

17 °C

22 °C

Sud

7.4 Km/h

Dew point 17 °C

Umidità 73 %

Visibilità  10 Km

Il sole sorge alle ore 05:45

Il sole tramonta alle ore 20:57

Data e Ora Cielo e Fenomeni T °C DP °C Um. % Pres. hPa Vis. km Vento km/h
Oggi h: 13:50 sereno Sereno 22 17 73 1016 10 S 7.4
Oggi h: 13:20 sereno Sereno 22 17 73 1016 10 S 7.4
Oggi h: 12:50 sereno Sereno 22 17 73 1017 10 S/SE 7.4
Oggi h: 12:20 sereno Sereno 22 17 73 1017 10 S/SE 9.3
Oggi h: 11:50 sereno Sereno 22 17 73 1017 10 S/SE 7.4
Oggi h: 11:20 sereno Sereno 22 18 78 1016 10 S 9.3
Oggi h: 10:50 sereno Sereno 21 18 82 1016 10 N 5.5
Oggi h: 10:20 sereno Sereno 21 18 82 1016 10 S/SE 9.3
Oggi h: 09:50 sereno Sereno 21 17 77 1016 10 N 5.5
Oggi h: 09:20 sereno Sereno 21 16 73 1016 10 N 3.7
Oggi h: 08:50 sereno Sereno 20 16 77 1015 10 N 3.7
Oggi h: 08:20 sereno Sereno 20 14 68 1015 10 N 5.5
Oggi h: 07:50 poco_nuvoloso Poco Nuvoloso 19 14 72 1015 10 N 5.5
Oggi h: 07:20 poco_nuvoloso Poco Nuvoloso 18 14 77 1014 10 N/NE 7.4
Oggi h: 06:50 poco_nuvoloso Poco Nuvoloso 17 14 82 1014 10 N/NE 9.3
Oggi h: 06:20 sereno Sereno 17 14 82 1014 10 N/NE 7.4
Oggi h: 05:50 sereno Sereno 17 14 82 1014 10 N/NE 9.3
Oggi h: 05:20 sereno Sereno 17 14 82 1014 10 N/NE 7.4
Oggi h: 04:50 sereno Sereno 17 14 82 1014 10 N/NE 9.3
Oggi h: 04:20 sereno Sereno 17 14 82 1014 10 N/NE 9.3
Oggi h: 03:50 sereno Sereno 17 14 82 1015 10 NE 9.3
Oggi h: 03:20 sereno Sereno 17 14 82 1015 10 NE 7.4
Oggi h: 02:20 sereno Sereno 18 15 82 1015 10 N 5.5
Oggi h: 01:50 sereno Sereno 18 15 82 1015 10 N 5.5
Oggi h: 01:20 sereno Sereno 18 15 82 1016 10 N 5.5
Oggi h: 00:50 sereno Sereno 18 15 82 1016 10 N/NE 9.3
Oggi h: 00:20 sereno Sereno 19 15 77 1016 10 N/NE 9.3
Ieri h: 23:50 sereno Sereno 19 14 72 1016 10 N/NE 7.4
Ieri h: 23:20 sereno Sereno 19 14 72 1016 10 N 5.5
Ieri h: 22:50 sereno Sereno 20 15 72 1016 10 N 5.5
Ieri h: 22:20 sereno Sereno 19 15 77 1016 10 N 0
Ieri h: 21:50 sereno Sereno 20 15 72 1016 10 N 3.7
Ieri h: 21:20 sereno Sereno 20 14 68 1016 10 N 5.5
Ieri h: 20:50 sereno Sereno 20 14 68 1016 10 N 3.7
Ieri h: 20:20 sereno Sereno 20 14 68 1016 10 N 3.7
Ieri h: 19:50 sereno Sereno 21 15 68 1016 10 N 3.7
Ieri h: 19:20 sereno Sereno 21 16 73 1016 10 SO 7.4
Ieri h: 18:50 sereno Sereno 21 16 73 1016 10 SO 7.4
Ieri h: 18:20 sereno Sereno 21 17 77 1016 10 S/SO 7.4
Ieri h: 17:50 sereno Sereno 21 16 73 1016 10 SO 9.3
Ieri h: 17:20 sereno Sereno 21 16 73 1017 10 S/SO 9.3
Ieri h: 16:50 sereno Sereno 22 17 73 1017 10 S/SO 7.4
Ieri h: 16:20 poco_nuvoloso Poco Nuvoloso 22 17 73 1017 10 SO 9.3
Ieri h: 15:50 poco_nuvoloso Poco Nuvoloso 22 17 73 1018 10 S/SO 9.3
Ieri h: 15:20 poco_nuvoloso Poco Nuvoloso 22 17 73 1018 10 S 7.4
Ieri h: 14:50 poco_nuvoloso Poco Nuvoloso 22 17 73 1018 10 S/SO 7.4